User: anonymous   Login
Location: North Bay Shore
(40.7362°N, 73.2626°W)
Time: 11:41:49
(UTC+00:00)
Language:

CORIOLIS - Orbit

View from above orbital plane
View from above orbital plane
View from above satellite
View from above satellite

Ground track
Ground track

The orbit data is extracted from the following two-line orbital elements,

1 27640U 03001A   21016.79843080 -.00000009  00000-0  16603-4 0  9992
2 27640  98.7244  28.9512 0014826 140.3948  32.6188 14.19058453933690
Epoch (UTC): 16 January 2021 19:09:44
Eccentricity: 0.0014826
inclination: 98.7244°
perigee height: 818 km
apogee height: 839 km
right ascension of ascending node: 28.9512°
argument of perigee: 140.3948°
revolutions per day: 14.19058453
mean anomaly at epoch: 32.6188°
orbit number at epoch: 93369

The dashed part of the orbit path shows where the satellite is in the earth's shadow,  

DLR